Tracking 21992 objects as of 28-Nov-2020
HD Live streaming from Space Station
objects crossing your sky now

STARLINK-1851

Track STARLINK-1851 now!
10-day predictions
STARLINK-1851 is classified as:


NORAD ID: 46783
Int'l Code: 2020-074AW
Perigee: 386.3 km
Apogee: 387.7 km
Inclination: 53.1 °
Period: 92.1 minutes
Semi major axis: 6758 km
RCS: Unknown
Launch date: October 24, 2020
Source: United States (US)
Launch site: AIR FORCE EASTERN TEST RANGE (AFETR)
aabbcc
Your satellite tracking list
Your tracking list is empty




NASA's NSSDC Master Catalog

Two Line Element Set (TLE):
1 46783U 20074AW  20333.00002315  .00096083  00000-0  10453-2 0  9994
2 46783  53.0548 351.8324 0001022  76.2045   6.9615 15.62692383  5625
Source of the keplerian elements: AFSPC